"read_dt","SO2 (ppb)","flags","PMT voltage (V)","lamp voltage (V)","lamp intensity (Hz)","internal temp (C)","react chamber temp (C)","sample flow (l/min)","pres (mmHg)","SO2 bkg (ppb)","SO2 coefficient"
2015-06-09 00:35:00,1752E-3,5C000004,-0724,0805,11778,017.3,018.2,0.498,737.6,01.18,0.508
2015-06-09 00:36:00,2668E-3,5C000004,-0724,0820,12302,017.5,018.9,0.497,737.6,01.18,0.508
2015-06-09 00:37:00,2679E-3,5C000004,-0724,0820,12209,017.6,019.9,0.496,737.7,01.18,0.508
2015-06-09 00:38:00,2610E-3,5C000004,-0724,0820,12254,017.8,020.9,0.496,737.7,01.18,0.508
2015-06-09 00:39:00,2675E-3,5C000004,-0724,0821,12210,018.0,022.1,0.495,737.8,01.18,0.508
2015-06-09 00:40:00,2544E-3,5C000004,-0724,0820,12239,018.2,023.2,0.494,737.8,01.18,0.508
2015-06-09 00:41:00,2433E-3,5C000004,-0724,0820,12139,018.4,024.2,0.494,737.9,01.18,0.508
2015-06-09 00:42:00,2553E-3,5C000004,-0724,0821,12084,018.6,025.3,0.493,737.8,01.18,0.508
2015-06-09 00:43:00,2572E-3,5C000004,-0724,0823,12176,018.8,026.3,0.493,737.8,01.18,0.508
2015-06-09 00:44:00,2542E-3,5C000004,-0724,0822,12256,019.0,027.3,0.492,737.9,01.18,0.508
2015-06-09 00:45:00,2459E-3,5C000004,-0724,0823,12108,019.2,028.2,0.491,737.9,01.18,0.508
2015-06-09 00:46:00,2487E-3,5C000004,-0724,0825,12381,019.3,029.1,0.491,737.8,01.18,0.508
2015-06-09 00:47:00,2453E-3,5C000004,-0724,0825,12176,019.5,030.0,0.490,737.9,01.18,0.508
2015-06-09 00:48:00,2568E-3,5C000004,-0724,0825,12141,019.7,030.8,0.490,737.9,01.18,0.508
2015-06-09 00:49:00,2396E-3,5C000004,-0724,0825,12347,019.8,031.6,0.490,737.8,01.18,0.508
2015-06-09 00:50:00,2415E-3,5C000004,-0724,0825,12271,020.0,032.4,0.489,738.0,01.18,0.508
2015-06-09 00:51:00,2381E-3,5C000004,-0724,0825,12281,020.2,033.1,0.489,737.8,01.18,0.508
2015-06-09 00:52:00,2143E-3,5C000004,-0724,0826,12117,020.4,033.9,0.488,737.8,01.18,0.508
2015-06-09 00:53:00,2260E-3,5C000004,-0724,0827,12175,020.5,034.6,0.489,737.8,01.18,0.508
2015-06-09 00:54:00,2269E-3,5C000004,-0724,0826,12281,020.6,035.2,0.488,737.8,01.18,0.508
2015-06-09 00:55:00,2201E-3,5C000004,-0724,0827,12394,020.8,035.9,0.488,737.8,01.18,0.508
2015-06-09 00:56:00,2172E-3,5C000004,-0724,0827,12182,021.0,036.5,0.488,737.7,01.18,0.508
2015-06-09 00:57:00,2275E-3,5C000004,-0724,0825,12017,021.1,037.2,0.487,737.7,01.18,0.508
2015-06-09 00:58:00,2252E-3,5C000004,-0724,0827,11116,021.2,037.8,0.487,737.6,01.18,0.508
2015-06-09 00:59:00,2211E-3,5C000004,-0724,0826,12282,021.4,038.3,0.486,737.8,01.18,0.508
2015-06-09 01:00:00,2198E-3,5C000004,-0724,0828,12250,021.5,038.9,0.487,737.8,01.18,0.508
2015-06-09 01:01:00,2208E-3,5C000004,-0724,0828,12049,021.6,039.5,0.486,737.9,01.18,0.508
2015-06-09 01:02:00,2031E-3,5C000004,-0724,0827,12246,021.7,040.0,0.486,737.9,01.18,0.508
2015-06-09 01:03:00,2015E-3,5C000014,-0724,0830,12413,021.9,040.5,0.486,737.8,01.18,0.508
2015-06-09 01:04:00,2032E-3,5C000004,-0724,0829,12336,022.0,041.1,0.485,737.9,01.18,0.508
2015-06-09 01:05:00,2119E-3,5C000014,-0724,0828,12379,022.1,041.6,0.485,737.7,01.18,0.508
2015-06-09 01:06:00,1919E-3,5C000004,-0724,0828,12228,022.2,042.0,0.485,737.9,01.18,0.508
2015-06-09 01:07:00,1838E-3,5C000004,-0724,0827,12272,022.3,042.5,0.485,737.7,01.18,0.508
2015-06-09 01:08:00,1917E-3,5C000000,-0724,0828,12201,022.5,043.0,0.485,737.6,01.18,0.508
2015-06-09 01:09:00,2031E-3,5C000000,-0724,0828,12247,022.8,043.4,0.484,737.6,01.18,0.508
2015-06-09 01:10:00,2043E-3,5C000000,-0724,0828,12296,023.0,043.9,0.484,737.4,01.18,0.508
2015-06-09 01:11:00,1947E-3,5C000000,-0724,0829,12113,023.2,044.3,0.483,737.4,01.18,0.508
2015-06-09 01:12:00,1904E-3,5C000000,-0724,0828,12171,023.5,044.7,0.483,737.7,01.18,0.508
2015-06-09 01:13:00,1806E-3,5C000000,-0724,0829,12227,023.7,045.2,0.483,737.7,01.18,0.508
2015-06-09 01:14:00,1873E-3,5C000000,-0724,0829,12146,023.9,045.5,0.482,737.8,01.18,0.508
2015-06-09 01:15:00,2032E-3,5C000000,-0724,0829,12028,024.1,045.6,0.482,737.8,01.18,0.508
2015-06-09 01:16:00,1998E-3,5C000000,-0724,0829,12347,024.3,045.5,0.481,737.9,01.18,0.508
2015-06-09 01:17:00,1868E-3,5C000000,-0724,0829,11266,024.5,045.5,0.482,737.9,01.18,0.508
2015-06-09 01:18:00,1751E-3,5C000000,-0724,0828,12231,024.7,045.5,0.481,737.9,01.18,0.508
2015-06-09 01:19:00,1899E-3,5C000000,-0724,0828,12260,024.9,045.5,0.481,738.0,01.18,0.508
2015-06-09 01:20:00,1794E-3,5C000000,-0724,0829,12331,025.1,045.5,0.480,738.1,01.18,0.508
2015-06-09 01:21:00,1822E-3,5C000000,-0724,0827,12229,025.2,045.5,0.480,738.1,01.18,0.508
2015-06-09 01:22:00,1707E-3,5C000000,-0724,0829,12101,025.4,045.5,0.480,738.1,01.18,0.508
2015-06-09 01:23:00,1768E-3,5C000000,-0724,0828,12297,025.6,045.5,0.480,738.1,01.18,0.508
2015-06-09 01:24:00,1710E-3,5C000000,-0724,0827,12142,025.8,045.5,0.480,738.2,01.18,0.508
2015-06-09 01:25:00,1779E-3,5C000000,-0724,0827,12569,025.9,045.5,0.479,738.1,01.18,0.508
2015-06-09 01:26:00,1803E-3,5C000000,-0724,0828,12298,026.1,045.5,0.479,738.1,01.18,0.508
2015-06-09 01:27:00,1732E-3,5C000000,-0724,0826,12291,026.2,045.5,0.478,737.9,01.18,0.508
2015-06-09 01:28:00,1790E-3,5C000000,-0724,0828,12118,026.4,045.5,0.478,738.1,01.18,0.508
2015-06-09 01:29:00,1691E-3,5C000000,-0724,0827,12102,026.6,045.5,0.478,738.0,01.18,0.508
2015-06-09 01:30:00,1682E-3,5C000000,-0724,0827,12115,026.7,045.5,0.478,738.0,01.18,0.508
2015-06-09 01:31:00,1799E-3,5C000000,-0724,0826,12271,026.8,045.5,0.478,737.9,01.18,0.508
2015-06-09 01:32:00,1793E-3,5C000000,-0724,0827,12162,027.0,045.5,0.477,737.9,01.18,0.508
2015-06-09 01:33:00,1637E-3,5C000000,-0724,0825,12204,027.1,045.5,0.477,737.9,01.18,0.508
2015-06-09 01:34:00,1841E-3,5C000000,-0724,0827,12164,027.2,045.5,0.477,737.9,01.18,0.508
2015-06-09 01:35:00,1652E-3,5C000000,-0724,0827,12192,027.4,045.5,0.476,738.0,01.18,0.508
2015-06-09 01:36:00,1754E-3,5C000000,-0724,0828,12295,027.5,045.5,0.477,738.0,01.18,0.508
2015-06-09 01:37:00,1698E-3,5C000000,-0724,0828,12187,027.6,045.5,0.476,738.0,01.18,0.508
2015-06-09 01:38:00,1728E-3,5C000000,-0724,0826,12265,027.8,045.5,0.476,738.0,01.18,0.508
2015-06-09 01:39:00,1862E-3,5C000000,-0724,0827,12208,027.9,045.5,0.476,737.9,01.18,0.508
2015-06-09 01:40:00,1735E-3,5C000000,-0724,0825,12312,028.0,045.5,0.476,737.9,01.18,0.508
2015-06-09 01:41:00,1806E-3,5C000000,-0724,0827,12143,028.1,045.5,0.476,738.0,01.18,0.508
2015-06-09 01:42:00,1802E-3,5C000000,-0724,0826,12292,028.2,045.5,0.475,738.0,01.18,0.508
2015-06-09 01:43:00,1595E-3,5C000000,-0724,0826,12087,028.4,045.5,0.476,738.0,01.18,0.508
2015-06-09 01:44:00,1677E-3,5C000000,-0724,0828,12246,028.5,045.5,0.476,738.0,01.18,0.508
2015-06-09 01:45:00,1825E-3,5C000000,-0724,0827,12169,028.6,045.5,0.475,738.0,01.18,0.508
2015-06-09 01:46:00,1753E-3,5C000000,-0724,0829,12283,028.7,045.5,0.475,738.1,01.18,0.508
2015-06-09 01:47:00,1696E-3,5C000000,-0724,0828,12335,028.8,045.5,0.475,738.2,01.18,0.508
2015-06-09 01:48:00,1589E-3,5C000000,-0724,0826,12011,028.9,045.5,0.475,738.2,01.18,0.508
2015-06-09 01:49:00,1771E-3,5C000000,-0724,0827,12467,029.0,045.5,0.475,738.2,01.18,0.508
2015-06-09 01:50:00,1724E-3,5C000000,-0724,0826,12282,029.1,045.5,0.474,738.2,01.18,0.508
2015-06-09 01:51:00,1654E-3,5C000000,-0723,0828,12146,029.2,045.5,0.474,738.3,01.18,0.508
2015-06-09 01:52:00,1707E-3,5C000000,-0724,0825,11061,029.3,045.5,0.474,738.3,01.18,0.508
2015-06-09 01:53:00,1628E-3,5C000000,-0724,0827,12142,029.4,045.5,0.474,738.4,01.18,0.508
2015-06-09 01:54:00,1713E-3,5C000000,-0723,0827,12074,029.5,045.5,0.474,738.4,01.18,0.508
2015-06-09 01:55:00,1579E-3,5C000000,-0723,0828,12290,029.6,045.5,0.474,738.3,01.18,0.508
2015-06-09 01:56:00,1741E-3,5C000000,-0723,0826,12274,029.7,045.5,0.474,738.4,01.18,0.508
2015-06-09 01:57:00,1700E-3,5C000000,-0723,0826,12203,029.7,045.5,0.473,738.3,01.18,0.508
2015-06-09 01:58:00,1724E-3,5C000000,-0723,0828,12302,029.9,045.5,0.473,738.5,01.18,0.508
2015-06-09 01:59:00,1739E-3,5C000000,-0723,0827,12131,029.9,045.5,0.473,738.5,01.18,0.508
2015-06-09 02:00:00,1739E-3,5C000000,-0723,0828,12080,030.0,045.5,0.473,738.5,01.18,0.508
2015-06-09 02:01:00,1696E-3,5C000000,-0723,0827,12258,030.1,045.5,0.473,738.6,01.18,0.508
2015-06-09 02:02:00,1786E-3,5C000000,-0723,0826,12253,030.2,045.5,0.473,738.6,01.18,0.508
2015-06-09 02:03:00,1702E-3,5C000000,-0723,0828,12266,030.2,045.5,0.473,738.6,01.18,0.508
2015-06-09 02:04:00,1640E-3,5C000000,-0723,0829,12173,030.3,045.5,0.473,738.6,01.18,0.508
2015-06-09 02:05:00,1737E-3,5C000000,-0723,0829,12164,030.4,045.5,0.473,738.6,01.18,0.508
2015-06-09 02:06:00,1618E-3,5C000000,-0723,0828,12248,030.5,045.5,0.473,738.6,01.18,0.508
2015-06-09 02:07:00,1779E-3,5C000000,-0723,0829,12228,030.5,045.5,0.473,738.7,01.18,0.508
2015-06-09 02:08:00,1801E-3,5C000000,-0723,0828,12230,030.6,045.5,0.473,738.7,01.18,0.508
2015-06-09 02:09:00,1613E-3,5C000000,-0723,0828,12252,030.7,045.5,0.472,738.6,01.18,0.508
2015-06-09 02:10:00,1654E-3,5C000000,-0723,0828,12211,030.7,045.5,0.472,738.6,01.18,0.508
2015-06-09 02:11:00,1744E-3,5C000000,-0723,0828,12201,030.8,045.5,0.472,738.6,01.18,0.508
2015-06-09 02:12:00,1736E-3,5C000000,-0723,0828,12250,030.9,045.5,0.472,738.6,01.18,0.508
2015-06-09 02:13:00,1763E-3,5C000000,-0723,0826,12332,031.0,045.5,0.472,738.4,01.18,0.508
2015-06-09 02:14:00,1737E-3,5C000000,-0723,0828,12127,031.0,045.5,0.472,738.4,01.18,0.508
2015-06-09 02:15:00,1663E-3,5C000000,-0723,0827,12235,031.1,045.5,0.471,738.5,01.18,0.508
2015-06-09 02:16:00,1837E-3,5C000000,-0723,0828,12073,031.1,045.6,0.472,738.6,01.18,0.508
2015-06-09 02:17:00,1715E-3,5C000000,-0723,0827,12191,031.1,045.6,0.472,738.6,01.18,0.508
2015-06-09 02:18:00,1692E-3,5C000000,-0723,0827,12319,031.1,045.5,0.472,738.6,01.18,0.508
2015-06-09 02:19:00,1706E-3,5C000000,-0723,0828,12148,031.1,045.5,0.472,738.6,01.18,0.508
2015-06-09 02:20:00,1689E-3,5C000000,-0723,0829,12367,031.0,045.5,0.472,738.5,01.18,0.508
2015-06-09 02:21:00,1661E-3,5C000000,-0723,0827,12177,031.0,045.5,0.471,738.6,01.18,0.508
2015-06-09 02:22:00,1769E-3,5C000000,-0723,0828,12241,030.9,045.5,0.472,738.5,01.18,0.508
2015-06-09 02:23:00,1772E-3,5C000000,-0723,0828,11084,030.8,045.5,0.472,738.4,01.18,0.508
2015-06-09 02:24:00,1713E-3,5C000000,-0723,0826,12219,030.7,045.5,0.472,738.5,01.18,0.508
2015-06-09 02:25:00,1783E-3,5C000000,-0723,0825,12157,030.6,045.5,0.472,738.4,01.18,0.508
2015-06-09 02:26:00,1765E-3,5C000000,-0723,0825,12197,030.4,045.5,0.472,738.2,01.18,0.508
2015-06-09 02:27:00,1624E-3,5C000000,-0723,0828,11222,030.3,045.5,0.473,738.3,01.18,0.508
2015-06-09 02:28:00,1864E-3,5C000010,-0723,0827,12486,030.2,045.5,0.472,738.3,01.18,0.508
2015-06-09 02:29:00,1713E-3,5C000000,-0723,0825,12205,030.0,045.5,0.473,738.3,01.18,0.508
2015-06-09 02:30:00,1722E-3,5C000000,-0723,0822,12026,029.8,045.5,0.473,738.4,01.18,0.508
2015-06-09 02:31:00,1673E-3,5C000000,-0723,0827,12329,029.6,045.5,0.473,738.4,01.18,0.508
2015-06-09 02:32:00,1773E-3,5C000000,-0723,0827,12269,029.4,045.5,0.473,738.2,01.18,0.508
2015-06-09 02:33:00,1749E-3,5C000000,-0723,0827,12230,029.2,045.5,0.474,738.5,01.18,0.508
2015-06-09 02:34:00,1782E-3,5C000000,-0723,0828,12181,029.0,045.5,0.474,738.5,01.18,0.508
2015-06-09 02:35:00,1688E-3,5C000000,-0723,0827,12323,028.9,045.5,0.474,738.5,01.18,0.508
2015-06-09 02:36:00,1625E-3,5C000000,-0723,0827,12243,028.7,045.5,0.474,738.2,01.18,0.508
2015-06-09 02:37:00,1701E-3,5C000000,-0723,0827,12303,028.6,045.5,0.475,738.4,01.18,0.508
2015-06-09 02:38:00,1683E-3,5C000000,-0723,0827,12112,028.4,045.5,0.475,738.3,01.18,0.508
2015-06-09 02:39:00,1689E-3,5C000000,-0723,0827,12221,028.2,045.5,0.475,738.2,01.18,0.508
2015-06-09 02:40:00,1698E-3,5C000000,-0724,0826,12156,028.1,045.4,0.476,738.4,01.18,0.508
2015-06-09 02:41:00,1748E-3,5C000000,-0723,0827,11936,028.0,045.5,0.476,738.3,01.18,0.508
2015-06-09 02:42:00,1726E-3,5C000000,-0723,0827,12170,027.9,045.5,0.476,738.3,01.18,0.508
2015-06-09 02:43:00,1638E-3,5C000000,-0724,0826,12251,027.7,045.4,0.477,738.2,01.18,0.508
2015-06-09 02:44:00,1756E-3,5C000000,-0724,0827,12103,027.6,045.5,0.476,738.5,01.18,0.508
2015-06-09 02:45:00,1681E-3,5C000000,-0724,0826,12139,027.6,045.4,0.477,738.4,01.18,0.508
2015-06-09 02:46:00,1690E-3,5C000000,-0724,0827,12317,027.5,045.4,0.477,738.4,01.18,0.508
2015-06-09 02:47:00,1737E-3,5C000000,-0724,0827,12226,027.4,045.4,0.477,738.4,01.18,0.508
2015-06-09 02:48:00,1671E-3,5C000000,-0724,0826,12283,027.3,045.4,0.477,738.3,01.18,0.508
2015-06-09 02:49:00,1751E-3,5C000000,-0724,0827,12173,027.3,045.4,0.477,738.4,01.18,0.508
2015-06-09 02:50:00,1665E-3,5C000000,-0724,0827,12322,027.1,045.4,0.478,738.2,01.18,0.508
2015-06-09 02:51:00,1681E-3,5C000000,-0724,0826,12267,027.1,045.4,0.478,738.1,01.18,0.508
2015-06-09 02:52:00,1715E-3,5C000000,-0724,0826,12322,027.0,045.4,0.477,738.3,01.18,0.508
2015-06-09 02:53:00,1713E-3,5C000000,-0724,0826,12223,026.9,045.4,0.478,738.0,01.18,0.508
2015-06-09 02:54:00,1640E-3,5C000000,-0724,0826,12243,026.9,045.4,0.478,738.1,01.18,0.508
2015-06-09 02:55:00,1565E-3,5C000000,-0724,0827,12311,026.8,045.4,0.478,738.1,01.18,0.508
2015-06-09 02:56:00,1761E-3,5C000000,-0724,0826,12255,026.8,045.4,0.478,738.2,01.18,0.508
2015-06-09 02:57:00,1753E-3,5C000000,-0724,0826,12219,026.7,045.4,0.478,737.9,01.18,0.508
2015-06-09 02:58:00,1702E-3,5C000000,-0724,0826,12186,026.7,045.4,0.478,738.2,01.18,0.508
2015-06-09 02:59:00,1742E-3,5C000000,-0724,0827,12213,026.6,045.4,0.478,738.2,01.18,0.508
2015-06-09 03:00:00,1678E-3,5C000000,-0724,0827,12171,026.5,045.4,0.479,738.4,01.18,0.508
2015-06-09 03:01:00,1716E-3,5C000000,-0724,0826,12239,026.5,045.4,0.478,738.1,01.18,0.508
2015-06-09 03:02:00,1745E-3,5C000000,-0724,0827,12285,026.5,045.4,0.478,738.4,01.18,0.508
2015-06-09 03:03:00,1759E-3,5C000000,-0724,0828,12375,026.4,045.4,0.478,738.4,01.18,0.508
2015-06-09 03:04:00,1594E-3,5C000000,-0724,0826,12256,026.4,045.4,0.478,738.3,01.18,0.508
2015-06-09 03:05:00,1759E-3,5C000000,-0724,0827,12116,026.4,045.4,0.478,738.3,01.18,0.508
2015-06-09 03:06:00,1565E-3,5C000000,-0724,0826,12189,026.4,045.4,0.479,738.4,01.18,0.508
2015-06-09 03:07:00,1644E-3,5C000000,-0724,0826,12123,026.3,045.4,0.479,738.3,01.18,0.508
2015-06-09 03:08:00,1729E-3,5C000000,-0724,0825,12321,026.3,045.4,0.479,738.3,01.18,0.508
2015-06-09 03:09:00,1753E-3,5C000000,-0724,0825,12202,026.3,045.4,0.479,738.6,01.18,0.508
2015-06-09 03:10:00,1659E-3,5C000000,-0724,0825,12242,026.2,045.4,0.479,738.6,01.18,0.508
2015-06-09 03:11:00,1711E-3,5C000000,-0724,0825,12342,026.2,045.4,0.479,738.6,01.18,0.508
2015-06-09 03:12:00,1677E-3,5C000000,-0724,0826,12301,026.2,045.4,0.479,738.5,01.18,0.508
2015-06-09 03:13:00,1695E-3,5C000000,-0724,0824,12224,026.2,045.4,0.479,738.6,01.18,0.508
2015-06-09 03:14:00,1700E-3,5C000000,-0724,0825,12105,026.1,045.4,0.479,738.5,01.18,0.508
2015-06-09 03:15:00,1634E-3,5C000000,-0724,0826,12167,026.1,045.4,0.479,738.5,01.18,0.508
2015-06-09 03:16:00,1695E-3,5C000000,-0724,0825,12134,026.1,045.4,0.479,738.5,01.18,0.508
2015-06-09 03:17:00,1560E-3,5C000000,-0724,0826,12260,026.1,045.4,0.480,738.7,01.18,0.508
2015-06-09 03:18:00,1652E-3,5C000000,-0724,0826,12332,026.1,045.4,0.479,738.6,01.18,0.508
2015-06-09 03:19:00,1507E-3,5C000000,-0724,0826,12316,026.0,045.4,0.479,738.5,01.18,0.508
2015-06-09 03:20:00,1706E-3,5C000000,-0724,0825,12193,026.0,045.4,0.479,738.5,01.18,0.508
2015-06-09 03:21:00,1724E-3,5C000000,-0724,0826,12263,026.0,045.4,0.479,738.7,01.18,0.508
2015-06-09 03:22:00,1600E-3,5C000000,-0724,0826,12334,026.0,045.4,0.479,738.7,01.18,0.508
2015-06-09 03:23:00,1663E-3,5C000000,-0724,0826,12265,026.0,045.4,0.479,738.8,01.18,0.508
2015-06-09 03:24:00,1624E-3,5C000000,-0724,0825,12164,026.0,045.4,0.480,738.6,01.18,0.508
2015-06-09 03:25:00,1610E-3,5C000000,-0724,0825,12298,026.0,045.4,0.480,738.7,01.18,0.508
2015-06-09 03:26:00,1733E-3,5C000000,-0724,0825,12420,026.0,045.4,0.479,738.8,01.18,0.508
2015-06-09 03:27:00,1651E-3,5C000000,-0724,0824,12417,025.9,045.4,0.480,738.8,01.18,0.508
2015-06-09 03:28:00,1772E-3,5C000000,-0724,0826,12309,025.9,045.4,0.479,738.8,01.18,0.508
2015-06-09 03:29:00,1776E-3,5C000000,-0724,0825,12157,025.9,045.4,0.479,738.9,01.18,0.508
2015-06-09 03:30:00,1813E-3,5C000000,-0724,0826,12070,025.9,045.4,0.479,738.7,01.18,0.508
2015-06-09 03:31:00,1752E-3,5C000000,-0724,0825,12296,025.9,045.4,0.479,738.8,01.18,0.508
2015-06-09 03:32:00,1713E-3,5C000000,-0724,0825,12201,025.9,045.4,0.479,738.8,01.18,0.508
2015-06-09 03:33:00,1720E-3,5C000000,-0724,0826,12305,025.9,045.4,0.479,738.9,01.18,0.508
2015-06-09 03:34:00,1728E-3,5C000000,-0724,0826,12293,025.9,045.4,0.479,738.9,01.18,0.508
2015-06-09 03:35:00,1727E-3,5C000000,-0724,0825,12176,025.9,045.4,0.479,738.7,01.18,0.508
2015-06-09 03:36:00,1544E-3,5C000000,-0724,0825,12226,025.9,045.4,0.479,738.6,01.18,0.508
2015-06-09 03:37:00,1648E-3,5C000000,-0724,0825,12270,025.9,045.4,0.479,738.7,01.18,0.508
2015-06-09 03:38:00,1657E-3,5C000000,-0724,0826,12219,025.9,045.4,0.479,738.8,01.18,0.508
2015-06-09 03:39:00,1667E-3,5C000000,-0724,0825,12279,025.8,045.4,0.479,738.8,01.18,0.508
2015-06-09 03:40:00,1654E-3,5C000000,-0724,0825,12039,025.9,045.4,0.480,738.7,01.18,0.508
2015-06-09 03:41:00,1756E-3,5C000000,-0724,0826,12338,025.8,045.4,0.480,738.8,01.18,0.508
2015-06-09 03:42:00,1606E-3,5C000010,-0724,0838,11891,025.8,045.4,0.480,738.8,01.18,0.508
2015-06-09 03:43:00,1666E-3,5C000000,-0724,0826,12314,025.8,045.4,0.480,738.9,01.18,0.508
2015-06-09 03:44:00,1662E-3,5C000000,-0724,0826,12096,025.8,045.4,0.480,738.9,01.18,0.508
2015-06-09 03:45:00,1730E-3,5C000000,-0724,0826,12241,025.8,045.4,0.480,738.9,01.18,0.508
2015-06-09 03:46:00,1689E-3,5C000000,-0724,0826,12149,025.8,045.4,0.480,738.8,01.18,0.508
2015-06-09 03:47:00,1732E-3,5C000000,-0724,0826,12150,025.8,045.4,0.480,738.8,01.18,0.508
2015-06-09 03:48:00,1665E-3,5C000000,-0724,0826,12257,025.8,045.4,0.480,738.9,01.18,0.508
2015-06-09 03:49:00,1815E-3,5C000000,-0724,0826,12132,025.8,045.4,0.480,739.0,01.18,0.508
2015-06-09 03:50:00,1663E-3,5C000000,-0724,0826,12202,025.8,045.4,0.480,739.0,01.18,0.508
2015-06-09 03:51:00,1793E-3,5C000000,-0724,0827,12286,025.8,045.4,0.480,739.0,01.18,0.508
2015-06-09 03:52:00,1717E-3,5C000000,-0724,0826,12052,025.8,045.4,0.480,739.1,01.18,0.508
2015-06-09 03:53:00,1628E-3,5C000000,-0724,0827,12234,025.8,045.4,0.480,739.1,01.18,0.508
2015-06-09 03:54:00,1760E-3,5C000000,-0724,0826,12276,025.8,045.4,0.480,739.1,01.18,0.508
2015-06-09 03:55:00,1667E-3,5C000000,-0724,0826,12261,025.8,045.4,0.480,739.1,01.18,0.508
2015-06-09 03:56:00,1788E-3,5C000000,-0724,0826,12180,025.8,045.4,0.480,739.1,01.18,0.508
2015-06-09 03:57:00,1693E-3,5C000000,-0724,0826,12185,025.8,045.4,0.480,739.0,01.18,0.508
2015-06-09 03:58:00,1657E-3,5C000000,-0724,0827,12159,025.8,045.4,0.480,739.2,01.18,0.508
2015-06-09 03:59:00,1714E-3,5C000000,-0724,0825,12218,025.8,045.4,0.480,739.2,01.18,0.508
2015-06-09 04:00:00,1663E-3,5C000000,-0724,0826,12221,025.8,045.4,0.480,738.9,01.18,0.508
2015-06-09 04:01:00,1527E-3,5C000000,-0724,0826,12144,025.8,045.4,0.480,739.1,01.18,0.508
2015-06-09 04:02:00,1673E-3,5C000000,-0724,0827,12265,025.8,045.4,0.480,739.2,01.18,0.508
2015-06-09 04:03:00,1703E-3,5C000000,-0724,0827,12160,025.8,045.4,0.479,739.1,01.18,0.508
2015-06-09 04:04:00,1624E-3,5C000000,-0724,0827,12312,025.8,045.4,0.479,739.2,01.18,0.508
2015-06-09 04:05:00,1626E-3,5C000000,-0724,0827,12230,025.8,045.4,0.479,739.3,01.18,0.508
2015-06-09 04:06:00,1745E-3,5C000000,-0724,0826,12225,025.8,045.4,0.479,739.2,01.18,0.508
2015-06-09 04:07:00,1857E-3,5C000000,-0724,0826,12237,025.8,045.4,0.479,739.1,01.18,0.508
2015-06-09 04:08:00,1583E-3,5C000000,-0724,0826,12338,025.8,045.4,0.479,739.2,01.18,0.508
2015-06-09 04:09:00,1713E-3,5C000000,-0724,0826,12336,025.8,045.4,0.479,739.2,01.18,0.508
2015-06-09 04:10:00,1821E-3,5C000000,-0724,0826,12243,025.8,045.4,0.479,739.2,01.18,0.508
2015-06-09 04:11:00,1723E-3,5C000000,-0724,0826,12296,025.8,045.4,0.479,739.1,01.18,0.508
2015-06-09 04:12:00,1638E-3,5C000000,-0724,0827,12272,025.8,045.4,0.479,739.1,01.18,0.508
2015-06-09 04:13:00,1760E-3,5C000000,-0724,0826,12178,025.8,045.4,0.480,739.2,01.18,0.508
2015-06-09 04:14:00,1691E-3,5C000000,-0724,0826,12171,025.8,045.4,0.480,739.1,01.18,0.508
2015-06-09 04:15:00,1750E-3,5C000000,-0724,0826,12200,025.8,045.4,0.480,739.2,01.18,0.508
2015-06-09 04:16:00,1672E-3,5C000000,-0724,0826,12273,025.8,045.4,0.480,739.2,01.18,0.508
2015-06-09 04:17:00,1689E-3,5C000000,-0724,0826,12265,025.8,045.4,0.480,739.1,01.18,0.508
2015-06-09 04:18:00,1786E-3,5C000000,-0724,0826,12284,025.8,045.4,0.480,739.2,01.18,0.508
2015-06-09 04:19:00,1589E-3,5C000000,-0724,0826,12170,025.8,045.4,0.480,739.2,01.18,0.508
2015-06-09 04:20:00,1669E-3,5C000000,-0724,0826,12245,025.8,045.4,0.480,739.2,01.18,0.508
2015-06-09 04:21:00,1751E-3,5C000000,-0724,0826,12184,025.8,045.4,0.480,739.3,01.18,0.508
2015-06-09 04:22:00,1745E-3,5C000000,-0724,0826,12276,025.8,045.4,0.480,739.3,01.18,0.508
2015-06-09 04:23:00,1599E-3,5C000000,-0724,0827,12251,025.8,045.4,0.480,739.1,01.18,0.508
2015-06-09 04:24:00,1787E-3,5C000000,-0724,0826,12283,025.8,045.4,0.480,739.1,01.18,0.508
2015-06-09 04:25:00,1671E-3,5C000000,-0724,0825,12309,025.8,045.4,0.480,739.1,01.18,0.508
2015-06-09 04:26:00,1663E-3,5C000000,-0724,0826,12187,025.8,045.4,0.480,739.2,01.18,0.508
2015-06-09 04:27:00,1727E-3,5C000000,-0724,0826,12225,025.8,045.4,0.480,739.1,01.18,0.508
2015-06-09 04:28:00,1672E-3,5C000000,-0724,0826,12274,025.8,045.4,0.480,739.2,01.18,0.508
2015-06-09 04:29:00,1699E-3,5C000000,-0724,0826,12218,025.8,045.4,0.480,739.2,01.18,0.508
2015-06-09 04:30:00,1629E-3,5C000000,-0724,0826,12304,025.8,045.4,0.480,739.2,01.18,0.508
2015-06-09 04:31:00,1717E-3,5C000000,-0724,0826,12352,025.8,045.4,0.480,739.2,01.18,0.508
2015-06-09 04:32:00,1673E-3,5C000000,-0724,0826,12312,025.8,045.4,0.479,739.2,01.18,0.508
2015-06-09 04:33:00,1737E-3,5C000000,-0724,0825,12196,025.8,045.4,0.480,739.3,01.18,0.508
2015-06-09 04:34:00,1665E-3,5C000000,-0724,0826,12308,025.8,045.4,0.479,739.3,01.18,0.508
2015-06-09 04:35:00,1662E-3,5C000000,-0724,0826,12378,025.8,045.4,0.480,739.4,01.18,0.508
2015-06-09 04:36:00,1775E-3,5C000000,-0724,0826,12275,025.8,045.4,0.480,739.3,01.18,0.508
2015-06-09 04:37:00,1802E-3,5C000000,-0724,0827,12307,025.8,045.4,0.479,739.3,01.18,0.508
2015-06-09 04:38:00,1810E-3,5C000000,-0724,0825,12259,025.8,045.4,0.479,739.1,01.18,0.508
2015-06-09 04:39:00,1752E-3,5C000000,-0724,0826,12200,025.8,045.4,0.479,739.1,01.18,0.508
2015-06-09 04:40:00,1742E-3,5C000000,-0724,0827,12317,025.8,045.4,0.479,739.1,01.18,0.508
2015-06-09 04:41:00,1619E-3,5C000000,-0724,0827,12255,025.8,045.4,0.479,739.3,01.18,0.508
2015-06-09 04:42:00,1659E-3,5C000000,-0724,0826,12254,025.8,045.4,0.479,739.3,01.18,0.508
2015-06-09 04:43:00,1752E-3,5C000000,-0724,0827,12295,025.8,045.4,0.479,739.2,01.18,0.508
2015-06-09 04:44:00,1805E-3,5C000000,-0724,0827,12144,025.8,045.4,0.479,739.3,01.18,0.508
2015-06-09 04:45:00,1707E-3,5C000000,-0724,0826,12197,025.8,045.4,0.480,739.4,01.18,0.508
2015-06-09 04:46:00,1659E-3,5C000000,-0724,0826,12257,025.8,045.4,0.480,739.3,01.18,0.508
2015-06-09 04:47:00,1709E-3,5C000000,-0724,0827,12115,025.8,045.4,0.480,739.2,01.18,0.508
2015-06-09 04:48:00,1749E-3,5C000000,-0724,0827,12098,025.8,045.4,0.480,739.3,01.18,0.508
2015-06-09 04:49:00,1786E-3,5C000000,-0724,0826,12055,025.8,045.4,0.480,739.3,01.18,0.508
2015-06-09 04:50:00,1826E-3,5C000000,-0724,0826,12228,025.8,045.4,0.480,739.2,01.18,0.508
2015-06-09 04:51:00,1860E-3,5C000000,-0724,0826,12289,025.8,045.4,0.480,739.2,01.18,0.508
2015-06-09 04:52:00,1626E-3,5C000000,-0724,0827,12376,025.8,045.4,0.480,739.2,01.18,0.508
2015-06-09 04:53:00,1698E-3,5C000000,-0724,0827,12253,025.8,045.4,0.480,739.1,01.18,0.508
2015-06-09 04:54:00,1555E-3,5C000000,-0724,0827,12175,025.8,045.4,0.480,739.2,01.18,0.508
2015-06-09 04:55:00,1804E-3,5C000000,-0724,0828,12299,025.8,045.4,0.480,739.1,01.18,0.508